Location: Cussy
(47.0410°N, 4.6412°E)
Time: 18:35:16
(UTC+00:00)

Cosmos 1503 - Visible Passes

Search period start: 22 June 2021 00:00
Search period end: 02 July 2021 00:00
Orbit: 775 x 793 km, 74.0° (Epoch: 21 June)

Date Brightness Start Highest point End Pass type
(mag) Time Alt. Az. Time Alt. Az. Time Alt. Az.
22 Jun 6.7 20:19:41 10° SW 20:24:46 48° WNW 20:29:55 10° NNE visible
23 Jun 8.7 21:33:18 10° WNW 21:35:55 14° NW 21:38:34 10° NNW visible
24 Jun 9.4 02:52:36 10° NNE 02:53:15 10° NE 02:53:54 10° NE visible
24 Jun 8.5 20:59:40 10° W 21:03:19 19° NW 21:07:01 10° N visible
25 Jun 8.2 20:26:27 10° WSW 20:30:48 25° NW 20:35:11 10° N visible
27 Jun 8.7 02:56:02 10° N 02:59:42 18° NE 03:03:21 10° E visible
27 Jun 9.3 21:08:52 10° NW 21:09:46 10° NW 21:10:40 10° NNW visible
28 Jun 8.9 02:24:30 10° NNE 02:27:06 13° NE 02:29:42 10° ENE visible
28 Jun 9.0 20:34:17 10° WNW 20:37:06 14° NW 20:39:56 10° NNW visible
30 Jun 7.6 03:01:04 10° N 03:05:54 33° ENE 03:10:42 10° ESE visible
01 Jul 8.2 02:29:08 10° N 02:33:26 24° NE 02:37:43 10° ESE visible
